View from above orbital plane
|
View from above satellite
|
Ground track
|
The orbit data is extracted from the following two-line orbital elements,
1 23404U 94077A 21058.49859922 -.00000330 00000-0 -14965-3 0 9990
2 23404 71.0164 344.1550 0018415 258.4500 101.4555 14.13537523354983
Epoch (UTC): | 27 February 2021 11:57:58 |
Eccentricity: | 0.0018415 |
inclination: | 71.0164° |
perigee height: | 834 km |
apogee height: | 860 km |
right ascension of ascending node: | 344.1550° |
argument of perigee: | 258.4500° |
revolutions per day: | 14.13537523 |
mean anomaly at epoch: | 101.4555° |
orbit number at epoch: | 35498 |
The dashed part of the orbit path shows where the satellite is in the earth's shadow,
|
|